www.pogodaiklimat.ru

Погода и климат >> Архив погоды >> Россия >> Магаданская область >> Сеймчан


АРХИВ ПОГОДЫ в Сеймчане

Время (UTC), дата Ветер
(напр.,м/с)
 
Видим.   Явления Облачность Т
(С)
Тd
(С)
f
(%)
Тe
(С)
Тes
(С)
Комфортность P
(гПа)
Po
(гПа)
Тmin
(С)
Tmax
(С)
R
(мм)
R24
(мм)
S
(см)
09 14.04 Ю 1 50 км 3/0
[Ci fib]
+1.3 -7.0 54 0 0 1011.8 985.7 +6.1
12 14.04 СЗ 1 50 км 4/0
[Ac trans Ci fib]
-6.4 -7.9 89 -9 -9 1012.4 985.6
15 14.04 штиль 0 50 км 4/0
[Ac trans Ci fib]
-10.8 -11.6 94 -11 -11 1012.7 985.4
18 14.04 штиль 0 50 км 3/0
[Ac trans Ci fib]
-14.0 -15.1 91 -14 -14 1013.0 985.4
21 14.04 штиль 0 50 км ясно -7.7 -10.9 78 -8 -6 1012.2 985.3 -14.7 48
00 15.04 Ю 1 50 км ясно +1.2 -8.3 49 0 +9 1010.6 984.6
03 15.04 Ю 5 50 км 4/0
[Ci fib]
+4.5 -10.0 34 +1 +4 1009.4 983.7
06 15.04 ЮЗ 4
{10}
50 км 6/0
[Ci fib]
+2.5 -9.4 41 -1 +1 1010.2 984.3
09 15.04 Ю 3
{10}
50 км 6/0
[Ac trans Ci fib]
-1.3 -10.6 49 -6 -6 1012.2 985.9 +4.6
12 15.04 Ю 2 50 км 8/0
[Ac trans Ci fib]
-3.2 -10.3 58 -7 -7 1013.7 987.2
15 15.04 ЮЗ 2 50 км 6/0
[Ac trans Ci fib]
-6.4 -11.4 68 -11 -11 1014.4 987.5
18 15.04 Ю 1 50 км 8/0
[Ac trans Ci fib]
-9.3 -13.0 74 -12 -12 1015.2 988.0
21 15.04 Ю 3 50 км 3/0
[Ci fib]
-2.9 -11.8 50 -7 -6 1015.4 988.8 -10.5 47
00 16.04 Ю 4 50 км 3/0
[Ci fib]
-0.2 -10.2 47 -5 -0 1015.7 989.4
03 16.04 З 5 50 км 3/3 1000 м
[Cu hum]
+1.2 -10.6 41 -4 -1 1014.8 988.6
06 16.04 ЮЗ 4 50 км 3/3 1000 м
[Cu hum]
+1.5 -10.8 39 -3 -1 1014.9 988.8
09 16.04 Ю 1 50 км 1/1 1000 м
[Sc]
-0.5 -10.5 47 -2 -2 1015.9 989.6 +2.1
12 16.04 ЮЗ 2 50 км 3/3 1000 м
[Sc]
-4.5 -11.6 58 -8 -8 1017.5 990.7
15 16.04 штиль 0 50 км 6/3 1000 м
[Sc Ci fib]
-10.1 -13.2 78 -10 -10 1018.3 991.0
18 16.04 СЗ 1 50 км 9/3 1000 м
[Sc Ci fib]
-13.6 -15.0 89 -16 -16 1019.7 992.0
21 16.04 штиль 0 50 км 9/0
[Ci fib]
-8.7 -13.6 68 -9 -7 1019.6 992.4 -14.1 45
00 17.04 ЮЗ 1 50 км 5/0
[Ci fib]
+1.4 -10.3 41 +1 +8 1017.5 991.3
03 17.04 штиль 0 50 км 9/0
[Cs]
+0.8 -10.7 42 +1 +10 опасность
простуды
1016.4 990.2
06 17.04 ЮВ 3 50 км 9/0
[Ac trans Ci fib]
+5.4 -9.5 33 +3 +5 1015.6 989.8
09 17.04 ЮВ 3 50 км 9/0
[Ac trans Ci fib]
+3.8 -9.7 37 +1 +1 1015.3 989.4 +5.9
12 17.04 СЗ 1 50 км 8/0
[Ac trans Ci fib]
-3.2 -8.4 67 -5 -5 1015.3 988.8
15 17.04 Ю 1 50 км 6/0
[Ac trans Ci fib]
-3.9 -7.5 76 -6 -6 1014.3 987.7
18 17.04 ЮВ 3 50 км 10/5 1000 м
[Sc As op]
+0.8 -12.7 36 -3 -3 1012.4 986.3
21 17.04 ЮВ 4 20 км 10/5 1000 м
[Sc Ac As]
+0.8 -12.0 38 -4 -3 1011.4 985.3 -4.7 43
00 18.04 Ю 4 20 км 9/5 1000 м
[Sc Ac trans]
+3.2 -8.3 43 -1 +1 1010.0 984.2
03 18.04 Ю 5-10
{11}
50 км 6/6 1000 м
[Cu Sc]
+4.5 -5.6 48 0 +2 1009.9 984.2
06 18.04 ЮЗ 4
{10}
50 км 6/6 1000 м
[Cu Sc]
+5.2 -6.7 42 +2 +3 1010.1 984.4
09 18.04 ЮЗ 2 50 км 8/3 1000 м
[Cu Sc Ci fib]
+3.1 -5.8 52 +1 +1 1012.1 986.2 +5.3
12 18.04 Ю 3 50 км 8/3 1000 м
[Sc Ci fib]
+0.5 -6.9 58 -4 -4 1014.2 988.0
15 18.04 Ю 4 50 км 8/3 1000 м
[Sc Ci fib]
-0.6 -7.5 60 -6 -6 1015.6 989.2
18 18.04 Ю 2 50 км 8/0
[Ac trans Ci fib]
-2.2 -8.0 64 -6 -6 1017.5 991.0
21 18.04 Ю 2 50 км 9/0
[Ac trans Ci fib]
+0.6 -6.3 60 -2 -1 1018.8 992.5 -2.4 39
00 19.04 ЮВ 1 50 км 9/0
[Ac trans Ci fib]
+3.3 -7.8 44 +3 +9 1019.8 993.7
03 19.04 Ю 1 50 км 9/0
[Ci fib]
+4.5 -8.7 38 +4 +12 1019.4 993.4
06 19.04 ЮВ 2 20 км 10/4 1000 м
[Cb calv As op]
+3.3 -7.5 45 +1 +2 1019.2 993.1
09 19.04 С 2 20 км слаб. ливневой снег 10/8 1000 м
[Cb calv As op]
+0.9 -3.1 75 -2 -2 1020.7 994.4 +5.2 0.0
12 19.04 СВ 1 50 км {ливн. осадки} 10/5 1000 м
[Sc As op]
-0.4 -3.3 81 -2 -2 1020.2 993.8
15 19.04 С 1 50 км 10/4 1000 м
[Sc As op]
-2.1 -3.4 91 -4 -4 1020.1 993.5
18 19.04 штиль 0 50 км 10/4 1000 м
[Sc As op]
-3.6 -4.5 93 -5 -5 1019.0 992.3
21 19.04 В 1 20 км 10/8 1000 м
[Sc As op]
-1.3 -3.8 83 -3 -3 1017.7 991.3 -3.9 0.0 37
00 20.04 Ю 2 20 км 10/4 1000 м
[Cb calv As trans]
+2.1 -3.3 67 -1 +1 1017.2 991.1
03 20.04 З 4 50 км 9/4 1000 м
[Cb calv Ac trans Ci fib]
+4.6 -2.6 60 +1 +3 1017.4 991.5
06 20.04 СВ 2 50 км 9/6 1000 м
[Cb calv Ac trans]
+5.1 -2.6 57 +3 +4 1017.8 991.9
09 20.04 СВ 3 20 км 9/8 1320 м
[Sc Ac trans]
+3.6 -2.5 64 0 0 1019.0 993.0 +5.5
12 20.04 СВ 2 50 км 9/6 1000 м
[Sc Ac trans]
+1.3 -3.5 70 -2 -2 1020.4 994.1
15 20.04 С 2 50 км 10/6 1000 м
[Sc As op]
+0.1 -4.4 72 -3 -3 1020.8 994.4
18 20.04 СВ 2 4000 м слаб. снег 10/8 1000 м
[Sc As op]
-1.2 -4.1 81 -5 -5 1021.2 994.7
21 20.04 СВ 2 20 км слаб. снег 10/5 1000 м
[Sc As op]
-1.0 -3.6 82 -5 -5 1021.0 994.5 -1.8 0.5 32
00 21.04 штиль 0 20 км {снег} 9/8 1000 м
[Sc Ac trans]
+4.3 -2.9 59 +4 +5 1019.4 993.5
03 21.04 Ю 1 50 км 8/8 1000 м
[Cu hum]
+6.4 -2.3 54 +6 +8 1018.2 992.4
06 21.04 Ю 2 50 км 8/1 1000 м
[Cu hum Ci fib]
+6.2 -2.2 55 +4 +7 1016.9 991.2

 

Местоположение метеостанции Сеймчан (Магаданская область, Россия): широта 62.91 долгота 152.40 высота над уровнем моря 210 м.

В архиве по умолчанию представлена погода в Сеймчане за последнюю неделю. Архивные данные за месяц целиком и за предыдущие месяцы, начиная с января 2011 года, Вы можете получить, выбрав интересующий диапазон дат из раскрывающегося списка и нажав кнопку "Ввод!".


*Определитесь, кто Вы:
робот инопланетянин человек

Внимание! Время в таблицах - всемирное. Для получения местного времени необходимо прибавить поправку, которая равна 11 ч.

Смотрите также архив погоды в соседних городах и на ближайших метеорологических станциях:

Погода в Среднекане (Магаданская область, Россия) (51 км)
Погода в Совхозе Эльген (Магаданская область, Россия) (92 км)
Погода в Усть-Бохапче (Магаданская область, Россия) (129 км)
Погода в Балыгычане (Магаданская область, Россия) (140 км)
Погода в Ягодной (Магаданская область, Россия) (150 км)
Погода на Озере Джека Лондона (Магаданская область, Россия) (175 км)
Погода в Омсукчане (Магаданская область, Россия) (179 км)
Погода в Талой (Магаданская область, Россия) (198 км)
Погода в Коркодоне (Магаданская область, Россия) (217 км)
Погода в Сусумане (Магаданская область, Россия) (219 км)

Пояснения к столбцам:

Ветер - указаны скорость ветра в м/с - средняя за 10 мин, порывы в срок и между сроками (в фигурных скобках) и направление, откуда дует ветер: С - северный, СВ - северо-восточный, В - восточный, ЮВ - юго-восточный, Ю - южный, ЮЗ - юго-западный, З - западный, СЗ - северо-западный.
Видимость - горизонтальная дальность видимости в метрах или километрах. При видимости от 1 до 10 км при отсутствии осадков обычно наблюдается дымка, при ухудшении видимости до 1 км и менее - туман. В сухую погоду видимость может ухудшаться дымом, пылью или мглою.
Явления - указаны атмосферные явления, наблюдавшиеся в срок или в последний час перед сроком; фигурными скобками обозначены явления, наблюдавшиеся между сроками (за 1-3 часа до срока); квадратными скобками обозначены град или гололедные отложения с указанием их диаметра в мм.
Облачность - указаны через наклонную черту общая и нижняя облачность в баллах и высота нижней границы облаков в метрах; квадратными скобками обозначены формы облаков: Ci - перистые, Cs - перисто-слоистые, Cc - перисто-кучевые, Ac - высококучевые, As - высокослоистые, Sc - слоисто-кучевые, Ns - слоисто-дождевые, Cu - кучевые, Cb - кучево-дождевые. Подробнее классификацию облаков см. в Атласе облаков (PDF).
T - Температура воздуха - температура, измеренная на высоте 2 м над землей.
Td - Температура точки росы - температура, при понижении до которой содержащийся в воздухе водяной пар достигнет насыщения.
f - Относительная влажность воздуха - влажноcть воздуха, измеренная на высоте 2 м над землей.
Te - Эффективная температура - температура, которую ощущает одетый по сезону человек в тени. Характеристика душности погоды. При расчете учитывается влияние влажности воздуха и скорости ветра на теплоощущения человека.
Tes - Эффективная температура на солнце - температура, которую ощущает человек, с поправкой на солнечный нагрев. Характеристика знойности погоды. Зависит от высоты солнца над горизонтом, облачности и скорости ветра. Ночью, в пасмурную погоду, а также при ветре 12 м/с и более поправка равна нулю.
P - Атмосферное давление - приведенное к уровню моря атмосферное давление.
Po - Атмосферное давление - измеренное на уровне метеостанции атмосферное давление.
Tmin - Минимальная температура - минимум температуры воздуха на высоте 2 м над землей.
Tmax - Максимальная температура - максимум температуры воздуха на высоте 2 м над землей.
R - Количество осадков - Количество выпавших осадков за период времени, мм. При наведении курсора мыши на число - период времени, за который выпало указанное количество осадков.
R24 - Количество осадков - Количество выпавших осадков за 24 часа, мм.
S - Снежный покров - Высота снежного покрова, см. При наведении курсора мыши на число - состояние снежного покрова и степень покрытия местности в баллах.